Theta_e
353 355 357 358 359 356 358 355 352 354 352 349 350 348 350 347 349 349 345 345 342 340 339 342 343 342 341 337 335 336 336 338 338 338 338 335 340 338 335 332 339 336 329 328 334 336 338 336 333
356 357 359 361 360 354 354 352 354 352 348 346 346 345 343 340 342 343 345 347 347 345 335 336 339 340 339 334 338 337 335 337 339 339 340 339 336 329 334 338 334 338 338 338 336 334 337 337 333
358 360 360 362 358 354 354 351 351 350 349 348 348 346 343 339 341 343 346 349 348 347 342 333 334 336 335 335 336 336 332 334 336 339 340 339 335 333 339 336 338 337 336 337 335 333 334 333 331
360 361 360 361 353 351 351 345 347 349 349 348 345 341 339 339 341 345 347 349 348 348 345 335 332 334 335 335 333 336 333 335 334 337 338 338 337 336 337 338 337 337 337 337 338 338 334 331 333
361 354 359 357 349 348 346 347 345 348 349 348 344 338 336 336 343 347 347 348 346 340 336 339 336 334 337 337 336 335 334 336 333 331 335 337 337 336 335 335 337 337 338 337 336 338 340 337 334
343 344 354 348 346 343 343 347 346 348 343 340 338 340 338 337 345 347 347 346 346 333 336 339 339 338 338 338 336 336 334 336 335 332 335 330 331 333 338 340 340 337 336 339 339 340 339 337 331
347 348 351 348 348 346 344 345 345 346 345 343 344 341 337 337 341 347 348 347 347 342 333 336 339 340 339 337 335 333 336 337 334 335 333 333 332 332 335 337 335 335 336 336 340 339 339 338 336
341 350 355 349 353 347 343 343 347 347 345 345 340 339 338 336 340 347 347 348 348 348 345 337 336 335 335 335 333 331 332 332 336 334 334 336 337 338 335 336 339 340 336 335 335 338 338 337 338
351 356 352 348 348 346 343 344 345 346 344 344 341 338 341 337 339 344 345 346 348 348 346 346 345 347 344 336 334 333 333 336 334 334 341 347 345 342 339 343 342 339 338 338 333 335 335 336 337
344 353 355 346 347 346 343 345 344 347 348 339 334 335 336 332 333 341 345 336 345 347 347 347 347 346 348 343 343 340 343 341 342 345 347 349 345 340 345 344 344 344 342 341 335 332 334 337 335
347 353 349 347 345 344 346 346 345 346 348 337 335 341 339 335 333 337 340 344 345 346 347 347 348 348 349 348 346 347 346 347 346 347 348 349 348 349 348 347 346 345 344 344 342 332 335 345 346
348 346 346 348 345 344 346 342 345 347 343 338 341 340 338 335 335 336 342 342 345 347 346 344 347 348 349 349 347 348 348 348 347 347 349 349 347 345 350 347 345 347 346 346 344 335 339 345 347
348 346 347 348 348 347 342 342 343 345 342 339 338 338 336 335 336 336 339 342 346 347 343 343 345 347 348 349 348 348 348 347 347 347 348 350 349 350 351 350 348 347 346 344 344 338 335 347 347
343 344 347 349 346 343 346 343 342 342 340 337 337 336 335 336 339 340 340 341 345 347 345 340 345 348 348 348 344 346 346 347 348 349 348 352 349 349 348 351 349 349 347 343 341 340 335 345 347
345 349 350 351 346 340 345 346 342 341 340 338 337 335 336 340 341 341 340 342 344 345 345 344 336 342 336 345 344 345 346 348 350 349 351 353 351 352 344 350 347 347 347 344 343 338 343 337 344
348 346 355 352 348 342 345 352 342 340 340 341 340 339 338 337 338 340 343 343 344 345 345 341 332 342 343 338 343 345 348 349 351 351 340 350 351 352 346 351 349 350 348 345 345 344 342 345 346
347 345 345 348 347 345 345 350 340 340 339 339 340 340 340 340 339 340 341 344 344 345 343 338 344 346 346 346 347 349 349 350 352 351 349 350 351 352 350 347 350 351 348 347 346 345 347 346 347
349 344 343 348 345 346 346 347 342 339 340 339 340 340 341 341 341 343 344 344 344 344 343 337 345 347 347 349 347 349 348 349 350 351 349 348 351 347 353 351 349 351 348 347 347 345 346 348 348
347 348 349 348 348 352 345 346 347 340 340 341 342 342 342 343 342 343 345 345 346 345 345 341 346 348 349 349 344 347 349 349 351 350 351 351 350 346 350 355 350 351 348 349 347 348 347 349 349
344 345 347 347 341 345 352 352 348 342 342 342 343 343 343 344 343 344 344 346 346 346 343 342 342 349 351 348 348 351 351 349 350 349 351 349 352 348 350 348 352 353 348 349 349 349 350 350 352
342 343 343 349 344 343 353 356 350 343 344 344 343 343 343 343 343 344 345 344 345 345 343 341 339 342 345 346 351 354 351 351 351 351 351 353 351 350 348 346 349 350 350 349 349 350 351 352 352
339 344 344 348 345 352 345 355 347 349 346 344 345 345 344 344 343 344 345 345 344 345 346 346 345 343 345 346 351 353 353 351 349 350 351 347 354 354 351 347 341 344 351 349 349 350 351 349 351
343 340 342 341 344 346 349 347 345 342 346 346 341 343 344 345 344 344 346 346 346 346 347 348 349 347 343 344 347 353 354 351 351 353 352 351 352 355 350 351 345 335 352 350 351 350 350 349 350
344 343 345 347 349 345 345 344 344 346 343 346 345 343 343 343 344 343 344 346 346 347 348 350 349 349 345 345 346 346 345 347 351 354 349 350 348 347 350 352 350 334 349 353 350 354 350 349 350
339 341 348 349 353 355 344 349 344 343 344 346 348 345 344 345 344 344 344 345 346 349 349 350 350 349 349 348 347 346 346 346 348 352 351 350 352 350 351 350 348 343 340 349 350 349 348 348 350
340 338 348 351 353 355 346 352 346 344 346 343 348 349 347 347 347 347 346 345 345 345 349 348 348 348 349 350 343 342 344 344 347 346 348 354 352 351 351 340 349 352 354 347 353 347 351 349 348
340 340 336 343 347 351 351 346 340 345 347 349 349 347 340 341 347 347 346 347 346 345 346 347 348 349 350 341 341 342 342 343 344 344 343 348 350 352 349 339 336 346 349 350 346 346 348 350 353
336 336 337 336 350 354 344 351 346 340 349 350 349 346 342 342 346 347 345 346 346 346 347 347 349 349 347 344 342 342 342 343 344 346 348 350 350 350 351 348 346 346 344 347 347 349 350 352 352
334 333 330 332 334 351 352 351 344 341 348 349 350 348 343 343 346 341 344 345 345 344 344 345 347 347 346 346 344 346 348 343 343 345 348 349 351 349 351 352 349 346 343 345 343 344 348 354 356
333 333 333 328 345 340 345 359 345 341 348 349 345 344 343 344 347 343 346 347 348 347 347 346 346 346 347 348 349 348 347 344 343 343 342 346 348 349 351 353 353 350 350 348 348 348 347 347 347
Wind_Speed
4 2 4 6 3 2 5 5 9 7 7 11 16 11 8 8 3 5 25 19 18 12 11 13 12 11 11 11 14 14 15 15 14 12 12 14 15 14 15 16 16 17 17 17 16 16 15 16 15
2 6 7 4 1 4 2 7 9 9 19 32 30 24 8 4 10 28 26 22 13 11 13 11 13 13 12 12 14 14 14 14 13 11 10 13 13 14 15 14 14 15 14 15 14 14 14 15 14
4 0 3 3 2 4 4 9 14 23 29 26 17 19 7 6 28 25 24 21 17 14 10 9 12 13 13 12 13 13 13 13 12 13 12 12 13 14 13 12 12 12 12 12 12 12 13 14 14
4 2 6 1 6 5 3 9 19 14 17 19 22 14 14 14 24 27 26 21 20 21 8 8 11 13 13 14 14 12 12 11 12 13 12 11 12 12 11 12 11 10 11 11 12 12 13 14 14
4 2 3 3 5 5 7 14 14 13 16 19 12 6 16 22 25 25 23 18 14 12 12 12 14 14 14 14 13 12 11 10 10 10 10 9 9 9 9 9 10 11 11 11 11 11 10 13 16
3 3 2 3 10 8 6 18 18 19 27 26 22 19 10 20 29 23 26 22 10 16 12 13 14 15 13 14 13 11 9 8 8 7 8 7 6 6 7 7 8 9 11 11 10 10 11 12 16
4 4 3 3 5 8 9 17 9 21 18 20 22 6 18 27 27 24 22 19 16 14 13 12 14 15 13 13 11 9 7 6 5 5 7 6 6 5 6 4 6 7 8 10 10 9 9 10 12
4 4 4 4 3 5 10 9 21 23 18 27 20 8 18 30 27 23 21 20 16 12 12 14 11 12 10 9 9 7 4 3 4 5 6 5 7 3 5 4 5 5 5 7 10 10 9 10 10
6 1 3 3 3 13 8 10 16 21 25 9 6 36 30 31 28 24 21 23 18 11 7 8 11 10 9 6 4 3 5 7 7 6 3 1 9 15 8 5 6 7 7 6 7 10 11 10 11
4 0 5 3 5 10 14 11 9 15 21 26 34 35 31 30 29 23 20 15 15 17 13 8 6 7 9 8 6 8 8 6 8 6 2 2 6 6 4 10 2 9 10 9 9 9 11 10 10
5 5 7 13 15 10 16 9 10 25 15 35 41 36 30 27 28 21 18 23 20 20 11 14 10 6 5 5 6 4 5 4 8 7 3 5 3 6 4 9 4 7 9 8 14 13 14 12 10
5 13 20 9 15 3 16 22 21 24 23 35 37 33 30 28 27 21 17 14 18 18 16 13 12 13 8 5 1 2 4 3 7 8 5 6 7 9 2 8 8 2 7 8 16 19 16 11 9
9 9 4 22 23 32 25 23 19 26 30 34 34 29 29 27 25 24 12 11 14 20 15 14 17 12 11 9 8 3 5 4 2 9 4 9 11 6 5 7 7 1 3 7 17 20 18 14 12
10 21 21 27 26 18 11 11 22 25 30 35 30 23 30 27 20 15 12 12 19 21 17 11 19 14 14 12 13 9 5 6 3 7 5 7 10 7 11 9 8 2 5 11 15 18 19 15 10
8 16 12 20 12 7 2 5 19 28 26 31 27 25 24 22 21 23 20 14 20 20 19 10 16 17 9 15 11 9 7 5 2 4 2 8 3 12 9 10 6 1 7 11 15 18 15 17 14
1 5 4 14 11 3 2 5 17 32 27 26 25 27 27 24 22 18 12 19 22 25 19 6 12 10 3 5 6 7 5 3 5 7 4 3 0 8 9 7 7 2 8 13 14 15 16 16 13
6 2 3 9 6 9 6 3 28 35 32 28 30 31 30 27 27 24 22 12 25 26 13 6 9 10 7 5 4 4 2 2 4 8 9 2 2 5 7 8 5 2 9 13 12 16 13 13 11
6 2 7 8 8 7 5 5 15 32 31 30 30 31 30 28 23 18 23 20 21 16 10 8 12 7 12 8 4 2 2 1 4 8 5 5 2 5 5 8 7 3 7 13 14 13 14 14 12
4 5 20 9 5 5 1 5 7 27 27 27 27 28 22 21 27 24 23 19 21 18 14 11 19 12 12 10 4 8 4 4 9 7 8 4 4 4 6 3 5 5 4 12 15 15 15 13 10
12 14 18 16 20 10 9 15 10 21 25 31 30 30 26 26 23 21 18 23 25 20 14 14 20 20 17 12 9 6 4 2 7 7 9 4 0 3 7 6 4 4 1 12 14 14 11 9 9
20 15 14 21 9 8 17 18 3 14 22 30 34 35 31 24 24 24 24 24 23 22 14 16 16 17 14 13 10 8 4 7 7 6 5 7 4 3 7 7 4 3 0 10 12 13 12 12 11
8 18 24 19 5 4 4 3 4 1 5 10 30 32 36 35 32 27 26 29 26 24 17 14 15 14 12 14 14 12 8 5 4 9 12 9 6 6 7 8 5 4 5 6 12 14 11 12 13
6 24 20 13 6 2 2 3 6 5 5 6 18 28 27 36 36 32 29 29 28 27 23 17 13 12 12 15 15 13 12 10 7 4 3 7 8 12 8 6 5 8 9 7 9 9 10 14 14
16 16 15 8 4 5 2 5 6 5 9 2 15 26 26 38 34 33 29 29 36 33 27 20 18 15 15 14 14 14 12 11 9 6 6 7 6 13 9 9 9 7 10 8 8 7 10 13 14
8 6 4 5 7 3 10 3 10 13 9 13 12 17 22 34 34 26 25 31 22 32 31 27 23 20 17 14 14 14 14 12 13 12 9 8 6 5 12 10 8 6 10 9 7 11 11 14 16
3 7 6 6 4 2 9 5 7 9 11 23 18 8 13 11 17 3 24 29 27 27 28 25 27 23 19 15 12 12 12 14 15 14 15 12 9 9 4 11 9 11 9 10 12 12 11 12 13
3 4 6 9 4 7 6 7 10 5 10 26 27 27 46 38 9 12 6 28 28 25 30 28 27 25 18 13 12 14 14 14 16 13 13 13 16 11 10 10 8 8 9 9 11 11 15 10 12
12 9 3 1 8 6 2 5 5 11 6 12 20 35 44 43 12 17 10 9 26 28 21 18 22 23 14 11 15 15 14 13 12 12 13 13 15 19 14 12 10 13 10 10 12 10 11 13 13
5 3 8 8 6 6 6 6 7 8 6 10 15 29 37 32 28 20 21 13 18 19 22 20 20 22 17 13 15 14 12 13 14 16 16 17 17 19 16 14 10 10 11 14 15 13 13 16 17
10 9 12 5 3 4 6 6 8 18 9 18 21 25 28 32 31 22 25 17 16 20 25 27 26 26 23 20 15 12 13 14 16 16 18 19 19 23 22 19 18 15 18 16 16 13 13 16 20
Wind_Direction
130 111 348 330 1 58 120 101 90 96 85 130 158 145 121 68 69 134 132 127 122 111 130 128 130 129 117 103 100 97 98 99 101 100 95 100 99 102 99 101 107 104 106 110 107 104 104 102 105
65 14 306 282 53 86 67 138 149 133 115 108 106 107 62 79 109 134 132 129 114 118 125 132 128 124 119 112 109 106 101 98 96 99 107 106 104 105 107 104 104 109 109 108 105 104 106 106 108
92 122 289 199 269 80 119 149 143 129 137 133 110 104 93 96 134 132 135 116 138 167 122 134 134 131 124 119 121 114 105 100 95 93 110 109 108 109 110 105 106 111 112 111 107 107 109 107 112
37 267 253 54 134 179 152 88 85 131 139 119 105 89 86 127 134 139 129 121 132 158 158 133 148 140 136 126 128 123 114 107 99 96 103 107 110 111 118 119 114 110 120 123 124 115 108 114 125
246 289 307 261 137 138 102 106 103 92 107 119 106 89 111 140 137 131 119 127 131 149 139 143 150 147 144 137 138 133 124 114 100 95 98 102 105 113 116 116 119 125 122 127 125 122 112 122 135
105 69 357 95 81 77 64 139 130 130 105 94 100 106 104 149 143 127 123 119 127 122 122 131 141 146 150 146 148 141 134 118 102 87 91 91 103 108 109 113 120 127 138 138 131 118 109 119 140
106 76 274 57 84 79 66 58 109 109 114 113 127 100 141 152 147 133 131 133 131 102 120 122 130 138 146 148 153 149 142 122 97 84 91 107 116 111 116 130 135 134 136 149 147 135 120 119 138
109 76 256 50 2 102 113 90 114 113 120 138 128 149 153 155 147 132 134 135 138 117 113 109 124 125 132 147 151 148 136 103 96 104 116 135 121 160 177 193 152 137 155 152 151 151 141 127 125
125 352 276 153 176 111 130 92 100 129 127 104 107 138 146 148 145 134 120 128 142 152 157 124 122 120 117 126 92 108 109 88 97 104 110 236 167 38 174 358 216 193 190 174 165 152 153 143 133
35 185 254 184 104 105 130 132 135 136 116 120 115 131 143 151 154 146 131 127 145 149 167 161 156 134 111 114 76 96 88 65 73 55 4 214 4 320 135 5 212 206 191 193 191 171 153 138 136
209 185 267 78 111 122 116 130 126 112 135 143 136 142 148 149 154 152 148 154 165 165 173 159 182 165 181 138 92 74 64 48 23 34 11 245 271 356 243 19 18 196 199 213 198 183 168 161 145
237 233 241 102 53 103 125 98 90 115 131 139 135 146 147 154 153 152 126 149 169 168 186 182 180 180 183 183 233 242 296 337 4 352 352 287 315 292 230 25 16 246 212 214 198 183 176 170 168
321 284 287 94 67 22 103 99 98 120 130 134 138 147 151 157 158 164 169 162 168 179 185 180 169 170 158 202 217 93 136 58 291 305 317 289 293 293 5 26 12 41 166 172 170 177 179 166 149
241 262 264 91 80 10 58 83 113 120 131 133 140 156 157 163 173 179 180 195 187 188 192 182 179 170 168 178 198 201 197 224 242 315 242 271 326 349 8 6 8 15 136 151 163 170 180 174 154
191 252 302 52 137 164 100 58 127 137 145 145 153 163 174 175 185 193 203 211 180 184 201 185 189 199 217 218 220 207 194 202 231 9 289 294 341 337 7 9 6 79 150 149 164 165 172 173 164
306 80 72 184 130 168 100 165 152 143 151 146 156 175 184 190 183 183 160 188 182 188 198 207 182 156 130 167 136 176 141 139 251 281 4 195 114 321 342 2 14 49 162 158 162 162 162 161 159
3 80 314 318 129 133 207 143 157 151 157 165 173 182 189 200 212 214 205 202 191 189 188 183 182 189 164 123 127 111 87 95 273 316 351 142 62 329 330 7 48 45 154 159 162 160 160 166 155
90 290 217 208 183 99 173 215 177 165 165 171 183 190 194 195 195 183 186 175 171 195 203 165 170 221 183 172 178 200 211 71 300 303 3 24 23 1 2 1 21 33 148 157 157 153 148 152 161
291 303 297 231 103 58 10 266 213 172 173 172 181 179 185 184 198 197 192 192 185 193 199 189 176 157 182 196 199 196 220 263 251 275 310 334 43 6 347 349 342 28 140 153 155 144 149 155 164
275 239 259 97 104 47 326 257 224 183 183 175 177 184 194 193 188 177 179 184 189 194 205 186 184 188 196 202 193 221 221 259 252 258 313 267 84 275 303 322 312 353 175 168 162 159 162 167 188
262 249 252 134 112 127 144 257 155 194 198 179 183 188 192 197 187 184 181 185 191 197 198 193 189 189 195 180 191 235 263 225 242 267 267 217 254 241 299 326 294 282 87 184 176 177 180 176 198
19 64 66 132 116 164 85 261 273 265 300 195 190 192 185 189 191 185 190 188 196 203 208 190 191 193 190 194 202 211 221 203 227 249 254 242 199 246 268 302 283 215 211 202 195 195 205 185 196
86 78 79 76 92 148 100 46 262 349 291 267 188 197 194 184 184 188 192 195 203 210 204 202 199 205 202 193 196 198 210 242 243 250 289 228 207 210 252 289 297 217 209 206 203 219 211 210 208
143 82 67 66 22 38 307 88 278 206 214 265 220 196 206 177 185 188 193 201 202 205 201 198 204 213 210 205 203 210 216 179 206 221 260 246 266 230 237 259 280 236 208 222 224 239 245 224 219
94 61 33 33 20 38 343 18 247 280 227 208 210 200 202 178 179 190 196 196 177 194 200 205 203 211 216 224 223 219 218 200 198 220 226 235 251 234 221 234 267 252 237 245 240 242 239 226 226
149 147 142 126 114 42 315 258 258 309 214 227 151 98 346 67 144 103 226 198 198 195 192 210 213 214 216 223 222 222 220 221 214 220 220 235 241 228 234 240 231 232 254 259 257 250 256 241 247
99 184 151 100 75 118 262 299 288 20 61 98 107 142 162 238 271 325 168 209 189 197 197 209 214 213 211 206 217 225 221 218 217 222 216 219 238 249 233 266 260 228 241 267 267 259 249 250 260
158 162 99 169 140 184 320 267 241 311 65 113 129 152 175 187 219 266 179 168 195 185 188 191 196 200 210 220 228 236 242 235 226 213 202 208 241 243 258 267 293 245 236 261 268 266 234 243 261
279 249 248 155 160 141 176 263 223 245 172 156 161 162 178 188 195 198 228 237 190 208 208 205 212 209 211 224 230 228 240 239 228 228 224 225 234 237 251 255 274 256 244 250 257 262 255 254 267
303 285 287 137 338 98 133 16 247 235 133 115 157 169 168 180 188 170 196 201 232 205 214 207 215 216 218 225 231 230 231 234 225 228 235 234 230 242 247 257 259 257 245 248 255 267 274 271 277